FENGYUN 3B

Last updated on Fri Oct 11 2024 00:02:17 GMT+0000 (Coordinated Universal Time)

1 37214U 10059A 24284.58470049 .00000553 00000+0 31108-3 0 9997 2 37214 99.0468 314.2505 0023037 125.2601 348.7651 14.14588497720528
UTC large
Height (km)
Speed (km/s)
/
Latitude / Longitude
Inclination (degrees)
Orbital Period (minutes)
Azimuth
Elevation
Range (km)
Doppler Factor

Next 0 passes for location: London (51.5072 / 0.1276)

Sorry there are no passes over London.